This demonstration page uses our WeatherBlox Daily Observations layout. Learn more.

Left ArrowRight Arrow

31.84235, -102.49876

Hourly Observations for July 7, 2022

Temp ( °F °C ) Dew Point ( °F °C ) Humidity (%) Winds ( mph kmh ) Pressure ( in mb ) Visibility ( mi km ) Precip ( " mm )
12:53 am 00:53 Clear 88 31.1 53 11.7 30 30 S 15 24 29.83 1010 10 16 0.00 0.00
1:53 am 01:53 Clear 85 29.4 55 12.8 36 36 S 15 24 29.83 1010 10 16 0.00 0.00
2:53 am 02:53 Clear 84 28.9 58 14.4 41 41 S 17 28 29.83 1010 10 16 0.00 0.00
3:53 am 03:53 Clear 83 28.3 58 14.4 43 43 S 15 24 29.83 1010 10 16 0.00 0.00
4:53 am 04:53 Clear 82 27.8 57 13.9 42 42 S 12 19 29.83 1010 10 16 0.00 0.00
5:53 am 05:53 Clear 81 27.2 56 13.3 42 42 S 9 15 29.84 1011 10 16 0.00 0.00
6:53 am 06:53 Sunny 80 26.7 57 13.9 45 45 S 10 17 29.86 1011 10 16 0.00 0.00
7:53 am 07:53 Sunny 80 26.7 59 15 49 49 S 9 15 29.88 1012 10 16 0.00 0.00
8:53 am 08:53 Sunny 81 27.2 63 17.2 54 54 S 15 24 29.89 1012 10 16 0.00 0.00
9:53 am 09:53 Sunny 84 28.9 64 17.8 51 51 S 16 26 29.89 1012 10 16 0.00 0.00
10:53 am 10:53 Sunny 88 31.1 63 17.2 43 43 S 14 22 29.89 1012 10 16 0.00 0.00
11:53 am 11:53 Sunny 91 32.8 62 16.7 38 38 S 14 22 29.89 1012 10 16 0.00 0.00
12:53 pm 12:53 Sunny 94 34.4 61 16.1 33 33 S 7 11 29.88 1012 10 16 0.00 0.00
1:53 pm 13:53 Sunny 96 35.6 57 13.9 27 27 SE 8 13 29.86 1011 10 16 0.00 0.00
2:53 pm 14:53 Sunny 98 36.7 53 11.7 22 22 undefined N/A 29.83 1010 10 16 0.00 0.00
3:53 pm 15:53 Sunny 99 37.2 51 10.6 20 20 VRB 5 7 29.81 1010 10 16 0.00 0.00
4:53 pm 16:53 Sunny 101 38.3 47 8.3 16 16 ESE 13 20 29.80 1009 10 16 0.00 0.00
5:53 pm 17:53 Sunny 100 37.8 43 6.1 14 14 ESE 9 15 29.78 1009 10 16 0.00 0.00
6:53 pm 18:53 Sunny 101 38.3 48 8.9 17 17 SSE 9 15 29.77 1008 10 16 0.00 0.00
7:53 pm 19:53 Sunny 99 37.2 49 9.4 18 18 SSE 15 24 29.78 1008 10 16 0.00 0.00
8:53 pm 20:53 Sunny 96 35.6 49 9.4 20 20 SSE 13 20 29.80 1009 10 16 0.00 0.00
9:53 pm 21:53 Clear 93 33.9 50 10 23 23 SSE 8 13 29.83 1010 10 16 0.00 0.00
10:53 pm 22:53 Clear 91 32.8 53 11.7 27 27 S 8 13 29.86 1011 10 16 0.00 0.00
11:53 pm 23:53 Clear 85 29.4 58 14.4 40 40 NW 9 15 29.90 1013 10 16 0.00 0.00

Powered by AerisWeather